Weather Roundup
Issued by NWS Chicago, IL

Home | Current Version | Previous Version | Graphics & Text | Print | Product List | Glossary On
Versions: 1 2 3 4 5 6 7 8 9 10 11 12 13 14 15 16 17 18 19 20 21 22 23 24 25 26 27 28 29 30 31 32 33 34 35 36 37 38 39 40 41 42 43 44 45 46 47 48 49 50
000
NZUS59 KLOT 200804
HRRLOT

CHICAGO AREA WEATHER ROUNDUP
NATIONAL WEATHER SERVICE CHICAGO/ROMEOVILLE IL
200 AM CST SAT JAN 20 2018

NOTE: "FAIR" INDICATES FEW OR NO CLOUDS BELOW 12,000 FEET WITH NO
SIGNIFICANT WEATHER AND/OR OBSTRUCTIONS TO VISIBILITY.

* THESE STATIONS ARE NOT UNDER NWS QUALITY CONTROL. THEY ALSO MAY NOT
  REPORT WEATHER SUCH AS PRECIPITATION OR FOG.

ILZ005-006-012>014-019>023-200900-
NORTHEAST ILLINOIS

CITY           SKY/WX    TMP DP  RH WIND       PRES   REMARKS
OHARE            N/A     37  27  67 SW12      29.80R
MIDWAY         MOCLDY    38  28  67 SW13      29.82R
AURORA           N/A     32  27  81 S7        29.82R WCI  26
LANSING*         N/A     33  29  86 SW12      29.84R WCI  24
JOLIET*          N/A     37  30  75 SW7       29.85R
WAUKEGAN         N/A     39  28  64 SW7       29.76R
DUPAGE AIRPORT   N/A     34  28  79 SW12      29.80R WCI  25
WHEELING         N/A     38  28  67 SW9       29.81R
KANKAKEE*        N/A    N/A N/A N/A SW15G21   29.88R
MORRIS*          N/A     35  29  79 SW7       29.84R WCI  29
LEWIS AIRPORT*   N/A     35  29  76 SW12      29.83R WCI  27
NORTHERLY ISL    N/A     39  27  62 W9          N/A
$$

WIZ051-052-058>065-066-070>072-200900-
SOUTHEAST WISCONSIN

CITY           SKY/WX    TMP DP  RH WIND       PRES   REMARKS
MILWAUKEE        N/A     40  29  64 W13G22    29.73R
KENOSHA*         N/A     39  28  64 SW13      29.76R
RACINE*          N/A     39  28  64 W9        29.76R
BURLINGTON       N/A     38  28  68 SW12G17   29.76R
WEST BEND        N/A     36  28  75 W9        29.72R
$$

INZ001>003-010>013-019-020-200900-
NORTHWEST INDIANA

CITY           SKY/WX    TMP DP  RH WIND       PRES   REMARKS
GARY*            N/A     37  27  67 SW10G16   29.84R
MICHIGAN CITY* NOT AVBL
RENSSELAER*    NOT AVBL
VALPARAISO       N/A     36  27  69 SW17      29.85R
$$

LMZ740>746-200900-
SOUTHERN LAKE MICHIGAN

STATION/POSITION TIME  SKY/WX   TEMP WIND        PRES    VSBY
                                AIR  DIR/SP/G
                 (UTC)          (F)  (DEG/KT/KT) (MB)    (MI)
HARRISON CRIB    0740            42  230/ 15/ 20   N/A
BURNHAM HARBOR   0800            38  220/  7/ 16   N/A
CALUMET HARBOR   0730            37  210/ 12/ 18 1008.8R
BURNS HARBOR     0740            38  220/ 18/ 23 1010.5R
MICHIGAN CITY    0740            39  190/ 18/ 21   N/A
$$

ABBREVIATIONS USED IN REMARKS
   TC - TEMPERATURE IN CELSIUS
  WCI - WIND CHILL INDEX
   HX - HEAT INDEX
  VSB - VISIBILITY
$$




USA.gov is the U.S. government's official web portal to all federal, state and local government web resources and services.